Regional Weather Roundup
Issued by NWS

Home | Current Version | Previous Version | Text Only | Print | Product List | Glossary Off
Versions: 1 2 3 4 5 6 7 8 9 10 11 12 13 14 15 16 17 18 19 20 21 22 23 24 25 26 27 28 29 30 31 32 33 34 35 36 37 38 39 40 41 42 43 44 45 46 47 48 49 50

000
ASUS43 KIND 311759
RWRIN

WEATHER ROUNDUP FOR INDIANA
NATIONAL WEATHER SERVICE INDIANAPOLIS IN
200 PM EDT TUE MAY 31 2016

NOTE: "FAIR" INDICATES FEW OR NO CLOUDS BELOW 12,000 FEET WITH NO
SIGNIFICANT WEATHER AND/OR OBSTRUCTIONS TO VISIBILITY.

* - STATION DOES NOT REPORT WEATHER SUCH AS PRECIPITATION OR FOG.

+ - STATION NOT QUALITY CONTROLLED BY THE NATIONAL WEATHER SERVICE.
    USE DATA WITH CAUTION...ESPECIALLY DEWPOINT AND RELATIVE
    HUMIDITY OBSERVATIONS.

INZ001>003-010>013-019-020-311900-
NORTHWEST INDIANA

CITY           SKY/WX    TMP DP  RH WIND       PRES   REMARKS
GARY /AIRPORT/ PTSUNNY   84  66  54 E14       29.99F
RENSSELAER +   PTSUNNY   84  50  30 SE9       29.96F

$$

LMZ046-743>745-311900-
SOUTHERN LAKE MICHIGAN

STATION/POSITION TIME  TEMP    WIND        PRES    WAVE
                       AIR SEA DIR/SP/G            HT
                 (UTC) (F)     (DEG/KT/KT) (MB)    (FT)
BURNS HARBOR     1700   68      60/  8/ 10 1016.3S
MICHIGAN CITY    1700   79      80/  5/  7   N/A
5NW MICH CITY    1700   67 63   50/  4/  6   N/A     0

$$

INZ004-005-014>016-021>024-311900-
NORTH CENTRAL INDIANA

CITY           SKY/WX    TMP DP  RH WIND       PRES   REMARKS
ELKHART        PTSUNNY  N/A N/A N/A E7        30.03R
GOSHEN         SUNNY     83  52  34 VRB3      30.01F
6HR MIN TEMP:  66; 6HR MAX TEMP:  84;

SOUTH BEND     CLOUDY    80  54  40 E8          N/A
6HR MIN TEMP:  66; 6HR MAX TEMP:  82;


$$

INZ006>009-017-018-025>027-311900-
NORTHEAST INDIANA

CITY           SKY/WX    TMP DP  RH WIND       PRES   REMARKS
ANGOLA *+        N/A     84  46  26 SE3       30.03S
FORT WAYNE     PTSUNNY   84  56  38 E8        30.02S
6HR MIN TEMP:  66; 6HR MAX TEMP:  84;


$$

INZ028-029-035-036-043>045-051>053-311900-
WEST CENTRAL INDIANA

CITY           SKY/WX    TMP DP  RH WIND       PRES   REMARKS
CRAWFORDSVL +  MOSUNNY   85  55  35 S12       29.99S
6HR MIN TEMP:  63; 6HR MAX TEMP:  86;

GREENCASTLE +  MOSUNNY   84  63  48 SW5       30.00S
LAFAYETTE      PTSUNNY   86  53  32 VRB3      29.96F
6HR MIN TEMP:  63; 6HR MAX TEMP:  87;

TERRE HAUTE    CLOUDY    85  57  38 SW12G20   29.98F
6HR MIN TEMP:  67; 6HR MAX TEMP:  86;


$$

INZ030>032-037>040-046>048-054>057-064-065-311900-
CENTRAL INDIANA

CITY           SKY/WX    TMP DP  RH WIND       PRES   REMARKS
INDIANAPOLIS   PTSUNNY   85  58  39 S10       29.98F
6HR MIN TEMP:  68; 6HR MAX TEMP:  86;

-EAGLE CREEK   MOSUNNY   86  55  34 S8        29.98F
6HR MIN TEMP:  69; 6HR MAX TEMP:  87;

KOKOMO *+      SUNNY     84  57  39 S7        29.98S
6HR MIN TEMP:  66; 6HR MAX TEMP:  86;

SHELBYVILLE    MOSUNNY   88  53  30 VRB3      29.97F
6HR MIN TEMP:  70; 6HR MAX TEMP:  90;


$$

INZ033-034-041-042-049-050-058-059-311900-
EAST CENTRAL INDIANA

CITY           SKY/WX    TMP DP  RH WIND       PRES   REMARKS
MUNCIE         SUNNY     88  53  30 SW3       29.99F
6HR MIN TEMP:  69; 6HR MAX TEMP:  88;


$$

INZ060-061-067>069-081>083-085>088-311900-
SOUTHWEST INDIANA

CITY           SKY/WX    TMP DP  RH WIND       PRES   REMARKS
EVANSVILLE     MOSUNNY   87  58  37 S6        29.97F
6HR MIN TEMP:  67; 6HR MAX TEMP:  87;

HUNTINGBURG *+ MOSUNNY   84  61  45 S8        29.99S
6HR MIN TEMP:  66; 6HR MAX TEMP:  84;


$$

INZ062-063-066-070>080-084-089>092-311900-
SOUTH CENTRAL AND SOUTHEAST INDIANA

CITY           SKY/WX    TMP DP  RH WIND       PRES   REMARKS
BLOOMINGTON    MOSUNNY   85  59  41 S7        30.00F
6HR MIN TEMP:  66; 6HR MAX TEMP:  85;

SEYMOUR +      CLOUDY    86  57  37 E5        29.99S

$$




USA.gov is the U.S. government's official web portal to all federal, state and local government web resources and services.